This is the latest recevied weather packets stored in our database for station/object XQ6AK-15. If no packets are shown the sender has not sent any weather packets the latest 10 day(s).
| Time | Temp. | Humidity | Pressure | Rain* | Wind** | Luminosity | Snow |
|---|---|---|---|---|---|---|---|
| 1787489509 | 0.56° C | 99% | 1017.2 hPa | 0 mm | - | 89 W/m² | - |
| 1787489205 | 0.56° C | 99% | 1017.2 hPa | 0 mm | - | 75 W/m² | - |
| 1787488901 | 0.56° C | 99% | 1017.1 hPa | 0 mm | - | 50 W/m² | - |
| 1787488596 | 0.56° C | 99% | 1017 hPa | 0 mm | - | 50 W/m² | - |
| 1787488293 | 0.56° C | 99% | 1016.9 hPa | 0 mm | - | 57 W/m² | - |
| 1787487990 | 0.56° C | 99% | 1016.9 hPa | 0 mm | - | 40 W/m² | - |
| 1787487685 | 0° C | 99% | 1016.9 hPa | 0 mm | - | 41 W/m² | - |
| 1787487382 | 0° C | 99% | 1016.9 hPa | 0 mm | - | 26 W/m² | - |
| 1787487079 | 0° C | 99% | 1016.8 hPa | 0 mm | - | 26 W/m² | - |
| 1787486778 | 0° C | 99% | 1016.9 hPa | 0 mm | - | 23 W/m² | - |
| 1787486473 | 0° C | 99% | 1016.8 hPa | 0 mm | - | 29 W/m² | - |
| 1787486172 | 0° C | 99% | 1017 hPa | 0 mm | - | 23 W/m² | - |
| 1787485868 | 0° C | 99% | 1016.9 hPa | 0 mm | - | 11 W/m² | - |
| 1787485563 | 0° C | 99% | 1016.9 hPa | 0 mm | - | 7 W/m² | - |
| 1787485259 | 0° C | 99% | 1016.8 hPa | 0 mm | - | 5 W/m² | - |
| 1787484954 | 0° C | 99% | 1016.7 hPa | 0 mm | - | 2 W/m² | - |
| 1787484651 | 0° C | 99% | 1016.8 hPa | 0 mm | - | 1 W/m² | - |
| 1787484346 | 0° C | 99% | 1016.8 hPa | 0 mm | - | 0 W/m² | - |
| 1787484043 | 0° C | 99% | 1016.8 hPa | 0 mm | - | 0 W/m² | - |
| 1787483738 | 0° C | 99% | 1016.6 hPa | 0 mm | - | 0 W/m² | - |
| 1787483435 | 0° C | 99% | 1016.5 hPa | 0 mm | - | 0 W/m² | - |
| 1787483131 | 0° C | 99% | 1016.5 hPa | 0 mm | - | 0 W/m² | - |
| 1787482827 | 0° C | 99% | 1016.8 hPa | 0 mm | - | 0 W/m² | - |
| 1787482522 | -0.56° C | 99% | 1016.8 hPa | 0 mm | - | 0 W/m² | - |
| 1787482218 | -0.56° C | 99% | 1017 hPa | 0 mm | - | 0 W/m² | - |
* Rain latest hour (hover to see other rain measurements)
** Current wind speed in m/s (hover to see current wind gust speed)